Time,TemperatureF,DewpointF,PressureIn,WindDirection,WindDirectionDegrees,WindSpeedMPH,WindSpeedGustMPH,Humidity,HourlyPrecipIn,Conditions,Clouds,dailyrainin,SoftwareType,DateUTC
2013-03-08 00:03:00,28.8,-7.2,29.00,NNW,342,0.0,2.7,20,0.00,,---,0.00,VWS V13.01,2013-03-08 09:03:00,
2013-03-08 00:08:00,30.4,-5.9,29.00,NNW,342,0.0,0.0,20,0.00,,---,0.00,VWS V13.01,2013-03-08 09:08:00,
2013-03-08 00:13:00,30.6,-5.7,28.97,NNW,342,0.0,0.0,20,0.00,,---,0.00,VWS V13.01,2013-03-08 09:13:00,
2013-03-08 00:18:00,30.6,-5.7,28.97,NNE,22,0.0,0.0,20,0.00,,---,0.00,VWS V13.01,2013-03-08 09:18:00,
2013-03-08 00:23:00,29.3,-6.8,28.97,NNE,22,0.0,0.0,20,0.00,,---,0.00,VWS V13.01,2013-03-08 09:23:00,
2013-03-08 00:28:00,29.5,-6.6,29.00,North,9,2.2,2.2,20,0.00,,---,0.00,VWS V13.01,2013-03-08 09:28:00,
2013-03-08 00:33:00,30.4,-5.9,29.00,North,10,0.0,0.0,20,0.00,,---,0.00,VWS V13.01,2013-03-08 09:33:00,
2013-03-08 00:38:00,29.7,-6.5,29.00,North,10,0.0,0.0,20,0.00,,---,0.00,VWS V13.01,2013-03-08 09:38:00,
2013-03-08 00:43:00,27.7,-7.2,29.00,North,10,0.0,0.0,21,0.00,,---,0.00,VWS V13.01,2013-03-08 09:43:00,
2013-03-08 00:48:00,27.1,-5.7,29.00,North,10,0.0,0.0,23,0.00,,---,0.00,VWS V13.01,2013-03-08 09:48:00,
2013-03-08 00:53:00,26.8,-6.0,29.00,North,10,0.0,0.0,23,0.00,,---,0.00,VWS V13.01,2013-03-08 09:53:00,
2013-03-08 00:58:00,25.9,-4.3,29.00,North,10,0.0,0.0,26,0.00,,---,0.00,VWS V13.01,2013-03-08 09:58:00,
2013-03-08 01:03:00,26.1,-4.1,29.00,North,10,0.0,0.0,26,0.00,,---,0.00,VWS V13.01,2013-03-08 10:03:00,
2013-03-08 01:08:00,25.3,-4.7,29.00,North,10,0.0,0.0,26,0.00,,---,0.00,VWS V13.01,2013-03-08 10:08:00,
2013-03-08 01:13:00,25.2,-2.6,29.00,North,10,0.0,0.0,29,0.00,,---,0.00,VWS V13.01,2013-03-08 10:13:00,
2013-03-08 01:18:00,24.4,-1.2,29.00,North,10,0.0,0.0,32,0.00,,---,0.00,VWS V13.01,2013-03-08 10:18:00,
2013-03-08 01:23:00,24.3,-0.7,29.00,North,10,0.0,0.0,33,0.00,,---,0.00,VWS V13.01,2013-03-08 10:23:00,
2013-03-08 01:28:00,24.4,-0.5,29.00,NW,312,0.0,0.0,33,0.00,,---,0.00,VWS V13.01,2013-03-08 10:28:00,
2013-03-08 01:33:00,24.6,0.9,29.00,NW,312,0.0,0.0,35,0.00,,---,0.00,VWS V13.01,2013-03-08 10:33:00,
2013-03-08 01:38:00,24.4,1.9,29.00,NW,312,0.0,0.0,37,0.00,,---,0.00,VWS V13.01,2013-03-08 10:38:00,
2013-03-08 01:43:00,24.4,1.3,29.00,NW,312,0.0,0.0,36,0.00,,---,0.00,VWS V13.01,2013-03-08 10:43:00,
2013-03-08 01:48:00,23.7,1.3,29.00,NW,312,0.0,0.0,37,0.00,,---,0.00,VWS V13.01,2013-03-08 10:48:00,
2013-03-08 01:53:00,24.1,1.0,29.00,NW,312,0.0,0.0,36,0.00,,---,0.00,VWS V13.01,2013-03-08 10:53:00,
2013-03-08 01:58:00,24.3,-0.1,29.03,NW,312,0.0,0.0,34,0.00,,---,0.00,VWS V13.01,2013-03-08 10:58:00,
2013-03-08 02:03:00,23.9,0.2,29.03,NW,312,0.0,0.0,35,0.00,,---,0.00,VWS V13.01,2013-03-08 11:03:00,
2013-03-08 02:08:00,23.7,0.1,29.03,NW,312,0.0,0.0,35,0.00,,---,0.00,VWS V13.01,2013-03-08 11:08:00,
2013-03-08 02:13:00,24.4,-0.5,29.03,NW,312,0.0,0.0,33,0.00,,---,0.00,VWS V13.01,2013-03-08 11:13:00,
2013-03-08 02:18:00,24.3,-1.3,29.03,WNW,294,0.0,0.0,32,0.00,,---,0.00,VWS V13.01,2013-03-08 11:18:00,
2013-03-08 02:23:00,23.2,-1.6,29.03,WNW,295,0.0,0.0,33,0.00,,---,0.00,VWS V13.01,2013-03-08 11:23:00,
2013-03-08 02:28:00,22.8,-2.0,29.03,WNW,295,0.0,0.0,33,0.00,,---,0.00,VWS V13.01,2013-03-08 11:28:00,
2013-03-08 02:33:00,22.6,0.3,29.03,WNW,294,0.0,0.0,37,0.00,,---,0.00,VWS V13.01,2013-03-08 11:33:00,
2013-03-08 02:38:00,21.9,0.8,29.03,WNW,294,0.0,0.0,39,0.00,,---,0.00,VWS V13.01,2013-03-08 11:38:00,
2013-03-08 02:43:00,21.7,2.2,29.03,WNW,294,0.0,0.0,42,0.00,,---,0.00,VWS V13.01,2013-03-08 11:43:00,
2013-03-08 02:48:00,22.3,2.7,29.03,WNW,294,0.0,0.0,42,0.00,,---,0.00,VWS V13.01,2013-03-08 11:48:00,
2013-03-08 02:53:00,21.9,2.4,29.03,WNW,295,0.0,0.0,42,0.00,,---,0.00,VWS V13.01,2013-03-08 11:53:00,
2013-03-08 02:58:00,22.6,3.0,29.03,WNW,294,0.0,0.0,42,0.00,,---,0.00,VWS V13.01,2013-03-08 11:58:00,
2013-03-08 03:03:00,21.7,2.2,29.03,WNW,295,0.0,0.0,42,0.00,,---,0.00,VWS V13.01,2013-03-08 12:03:00,
2013-03-08 03:08:00,21.2,2.2,29.03,WNW,294,0.0,0.0,43,0.00,,---,0.00,VWS V13.01,2013-03-08 12:08:00,
2013-03-08 03:13:00,21.2,1.7,29.03,NW,307,0.0,0.0,42,0.00,,---,0.00,VWS V13.01,2013-03-08 12:13:00,
2013-03-08 03:18:00,21.2,2.7,29.03,NW,307,0.0,0.0,44,0.00,,---,0.00,VWS V13.01,2013-03-08 12:18:00,
2013-03-08 03:23:00,20.3,1.9,29.03,NW,308,0.0,0.0,44,0.00,,---,0.00,VWS V13.01,2013-03-08 12:23:00,
2013-03-08 03:28:00,19.8,0.9,29.03,NW,304,3.6,4.0,43,0.00,,---,0.00,VWS V13.01,2013-03-08 12:28:00,
2013-03-08 03:33:00,20.1,1.7,29.03,NW,304,0.0,0.0,44,0.00,,---,0.00,VWS V13.01,2013-03-08 12:33:00,
2013-03-08 03:38:00,21.4,4.3,29.03,NW,312,2.2,2.2,47,0.00,,---,0.00,VWS V13.01,2013-03-08 12:38:00,
2013-03-08 03:43:00,20.7,2.7,29.03,NW,312,0.0,0.0,45,0.00,,---,0.00,VWS V13.01,2013-03-08 12:43:00,
2013-03-08 03:48:00,19.9,2.5,29.03,NW,312,0.0,0.0,46,0.00,,---,0.00,VWS V13.01,2013-03-08 12:48:00,
2013-03-08 03:53:00,20.8,2.9,29.03,NW,312,2.7,2.7,45,0.00,,---,0.00,VWS V13.01,2013-03-08 12:53:00,
2013-03-08 03:58:00,20.7,2.7,29.03,NW,305,0.0,0.0,45,0.00,,---,0.00,VWS V13.01,2013-03-08 12:58:00,
2013-03-08 04:03:00,21.0,3.5,29.03,NW,310,0.0,0.0,46,0.00,,---,0.00,VWS V13.01,2013-03-08 13:03:00,
2013-03-08 04:08:00,21.2,0.7,29.03,NNW,333,0.0,0.0,40,0.00,,---,0.00,VWS V13.01,2013-03-08 13:08:00,
2013-03-08 04:13:00,21.2,-0.4,29.03,ESE,106,0.0,0.0,38,0.00,,---,0.00,VWS V13.01,2013-03-08 13:13:00,
2013-03-08 04:18:00,22.3,-3.1,29.03,ESE,109,0.0,0.0,32,0.00,,---,0.00,VWS V13.01,2013-03-08 13:18:00,
2013-03-08 04:23:00,21.6,-7.2,29.03,SE,133,0.0,0.0,27,0.00,,---,0.00,VWS V13.01,2013-03-08 13:23:00,
2013-03-08 04:28:00,21.2,-5.4,29.06,SE,140,0.0,0.0,30,0.00,,---,0.00,VWS V13.01,2013-03-08 13:28:00,
2013-03-08 04:33:00,21.2,-4.0,29.06,SE,140,0.0,0.0,32,0.00,,---,0.00,VWS V13.01,2013-03-08 13:33:00,
2013-03-08 04:38:00,21.4,-3.9,29.06,SE,140,0.0,0.0,32,0.00,,---,0.00,VWS V13.01,2013-03-08 13:38:00,
2013-03-08 04:43:00,21.7,-7.1,29.06,SE,139,0.0,0.0,27,0.00,,---,0.00,VWS V13.01,2013-03-08 13:43:00,
2013-03-08 04:48:00,20.7,-5.9,29.06,SE,140,0.0,0.0,30,0.00,,---,0.00,VWS V13.01,2013-03-08 13:48:00,
2013-03-08 04:53:00,19.8,-6.7,29.06,SE,141,0.0,0.0,30,0.00,,---,0.00,VWS V13.01,2013-03-08 13:53:00,
2013-03-08 04:58:00,21.0,-2.9,29.03,SE,140,0.0,0.0,34,0.00,,---,0.00,VWS V13.01,2013-03-08 13:58:00,
2013-03-08 05:03:00,20.3,-4.8,29.03,SE,140,3.1,3.1,32,0.00,,---,0.00,VWS V13.01,2013-03-08 14:03:00,
2013-03-08 05:08:00,19.9,-3.9,29.03,West,277,3.6,3.6,34,0.00,,---,0.00,VWS V13.01,2013-03-08 14:08:00,
2013-03-08 05:13:00,21.9,-3.4,29.03,NW,310,0.0,0.0,32,0.00,,---,0.00,VWS V13.01,2013-03-08 14:13:00,
2013-03-08 05:18:00,21.6,-5.1,29.03,West,280,0.0,0.0,30,0.00,,---,0.00,VWS V13.01,2013-03-08 14:18:00,
2013-03-08 05:23:00,21.2,-5.4,29.03,West,278,0.0,0.0,30,0.00,,---,0.00,VWS V13.01,2013-03-08 14:23:00,
2013-03-08 05:28:00,21.4,-5.2,29.03,WNW,289,0.0,2.2,30,0.00,,---,0.00,VWS V13.01,2013-03-08 14:28:00,
2013-03-08 05:33:00,21.6,-5.1,29.03,West,272,0.0,0.0,30,0.00,,---,0.00,VWS V13.01,2013-03-08 14:33:00,
2013-03-08 05:38:00,21.7,-4.9,29.03,West,271,0.0,0.0,30,0.00,,---,0.00,VWS V13.01,2013-03-08 14:38:00,
2013-03-08 05:43:00,21.2,-5.4,29.03,West,272,0.0,0.0,30,0.00,,---,0.00,VWS V13.01,2013-03-08 14:43:00,
2013-03-08 05:48:00,20.7,-8.0,29.03,West,271,0.0,0.0,27,0.00,,---,0.00,VWS V13.01,2013-03-08 14:48:00,
2013-03-08 05:53:00,19.0,-5.3,29.03,WNW,302,0.0,0.0,33,0.00,,---,0.00,VWS V13.01,2013-03-08 14:53:00,
2013-03-08 05:58:00,18.9,-4.9,29.03,WNW,301,0.0,0.0,34,0.00,,---,0.00,VWS V13.01,2013-03-08 14:58:00,
2013-03-08 06:03:00,19.6,-4.2,29.03,NW,325,3.6,5.4,34,0.00,,---,0.00,VWS V13.01,2013-03-08 15:03:00,
2013-03-08 06:08:00,19.2,-4.5,29.03,NW,321,2.2,2.7,34,0.00,,---,0.00,VWS V13.01,2013-03-08 15:08:00,
2013-03-08 06:13:00,18.3,-5.3,29.03,NW,321,0.0,0.0,34,0.00,,---,0.00,VWS V13.01,2013-03-08 15:13:00,
2013-03-08 06:18:00,19.0,-4.1,29.03,NW,316,4.5,4.9,35,0.00,,---,0.00,VWS V13.01,2013-03-08 15:18:00,
2013-03-08 06:23:00,20.3,-3.6,29.03,NNW,338,2.7,2.7,34,0.00,,---,0.00,VWS V13.01,2013-03-08 15:23:00,
2013-03-08 06:28:00,21.6,-2.5,29.03,NNE,28,3.1,3.1,34,0.00,,---,0.00,VWS V13.01,2013-03-08 15:28:00,
2013-03-08 06:33:00,23.4,-8.1,29.03,NE,44,0.0,3.1,24,0.00,,---,0.00,VWS V13.01,2013-03-08 15:33:00,
2013-03-08 06:38:00,25.5,-9.0,29.03,North,357,2.7,4.0,21,0.00,,---,0.00,VWS V13.01,2013-03-08 15:38:00,
2013-03-08 06:43:00,23.9,-9.4,29.03,NNW,331,3.6,4.0,22,0.00,,---,0.00,VWS V13.01,2013-03-08 15:43:00,
2013-03-08 06:48:00,21.0,-9.3,29.03,NNW,338,2.7,2.7,25,0.00,,---,0.00,VWS V13.01,2013-03-08 15:48:00,
2013-03-08 06:53:00,21.9,-6.9,29.03,NNW,332,2.7,4.9,27,0.00,,---,0.00,VWS V13.01,2013-03-08 15:53:00,
2013-03-08 06:58:00,25.2,-9.3,29.03,North,349,3.6,4.9,21,0.00,,---,0.00,VWS V13.01,2013-03-08 15:58:00,
2013-03-08 07:04:00,26.2,-8.4,29.03,NNE,14,2.7,4.5,21,0.00,,---,0.00,VWS V13.01,2013-03-08 16:04:00,
2013-03-08 07:09:00,26.4,-8.2,29.03,North,353,6.3,6.3,21,0.00,,---,0.00,VWS V13.01,2013-03-08 16:09:00,
2013-03-08 07:14:00,26.1,-8.5,29.03,North,11,2.7,3.6,21,0.00,,---,0.00,VWS V13.01,2013-03-08 16:14:00,
2013-03-08 07:19:00,24.4,-8.9,29.03,NNW,343,5.4,5.4,22,0.00,,---,0.00,VWS V13.01,2013-03-08 16:19:00,
2013-03-08 07:24:00,23.0,-10.2,29.03,North,353,4.9,5.4,22,0.00,,---,0.00,VWS V13.01,2013-03-08 16:24:00,
2013-03-08 07:29:00,23.2,-10.0,29.03,North,350,3.6,4.9,22,0.00,,---,0.00,VWS V13.01,2013-03-08 16:29:00,
2013-03-08 07:34:00,22.5,-10.6,29.03,NNW,333,3.6,3.6,22,0.00,,---,0.00,VWS V13.01,2013-03-08 16:34:00,
2013-03-08 07:39:00,21.7,-8.6,29.03,NNW,332,3.6,4.0,25,0.00,,---,0.00,VWS V13.01,2013-03-08 16:39:00,
2013-03-08 07:44:00,21.0,-9.3,29.03,NNW,330,0.0,0.0,25,0.00,,---,0.00,VWS V13.01,2013-03-08 16:44:00,
2013-03-08 07:49:00,20.5,-9.7,29.03,NNW,330,0.0,0.0,25,0.00,,---,0.00,VWS V13.01,2013-03-08 16:49:00,
2013-03-08 07:54:00,21.4,-7.4,29.03,NNW,330,2.7,4.0,27,0.00,,---,0.00,VWS V13.01,2013-03-08 16:54:00,
2013-03-08 07:59:00,22.3,-8.2,29.03,NNW,341,2.2,2.2,25,0.00,,---,0.00,VWS V13.01,2013-03-08 16:59:00,
2013-03-08 08:04:00,23.4,-8.1,29.03,North,349,4.0,4.0,24,0.00,,---,0.00,VWS V13.01,2013-03-08 17:04:00,
2013-03-08 08:09:00,24.1,-9.2,29.03,North,350,3.1,3.1,22,0.00,,---,0.00,VWS V13.01,2013-03-08 17:09:00,
2013-03-08 08:14:00,24.8,-8.6,29.03,NNW,329,5.4,5.4,22,0.00,,---,0.00,VWS V13.01,2013-03-08 17:14:00,
2013-03-08 08:19:00,23.5,-9.7,29.03,NNW,332,4.0,4.9,22,0.00,,---,0.00,VWS V13.01,2013-03-08 17:19:00,
2013-03-08 08:24:00,25.5,-9.0,29.03,North,353,5.4,5.4,21,0.00,,---,0.00,VWS V13.01,2013-03-08 17:24:00,
2013-03-08 08:29:00,27.5,-7.3,29.03,North,353,3.6,4.0,21,0.00,,---,0.00,VWS V13.01,2013-03-08 17:29:00,
2013-03-08 08:34:00,28.0,-6.8,29.03,NNW,348,4.0,4.0,21,0.00,,---,0.00,VWS V13.01,2013-03-08 17:34:00,
2013-03-08 08:39:00,29.3,-6.8,29.03,North,349,4.0,4.0,20,0.00,,---,0.00,VWS V13.01,2013-03-08 17:39:00,
2013-03-08 08:44:00,29.7,-6.5,29.03,North,357,3.1,3.1,20,0.00,,---,0.00,VWS V13.01,2013-03-08 17:44:00,
2013-03-08 08:49:00,30.2,-6.0,29.03,North,353,3.1,3.1,20,0.00,,---,0.00,VWS V13.01,2013-03-08 17:49:00,
2013-03-08 08:54:00,30.9,-5.4,29.03,North,353,3.1,4.0,20,0.00,,---,0.00,VWS V13.01,2013-03-08 17:54:00,
2013-03-08 08:59:00,31.1,-5.3,29.00,NNE,26,3.6,4.0,20,0.00,,---,0.00,VWS V13.01,2013-03-08 17:59:00,
2013-03-08 09:04:00,31.6,-4.8,29.00,NE,37,3.1,3.1,20,0.00,,---,0.00,VWS V13.01,2013-03-08 18:04:00,
2013-03-08 09:09:00,31.5,-5.0,29.00,NNE,33,4.0,4.0,20,0.00,,---,0.00,VWS V13.01,2013-03-08 18:09:00,
2013-03-08 09:14:00,32.2,-4.4,29.03,NNE,31,5.8,5.8,20,0.00,,---,0.00,VWS V13.01,2013-03-08 18:14:00,
2013-03-08 09:19:00,32.5,-4.1,29.03,NNE,29,5.8,6.3,20,0.00,,---,0.00,VWS V13.01,2013-03-08 18:19:00,
2013-03-08 09:24:00,32.0,-4.5,29.03,NNE,14,2.7,3.1,20,0.00,,---,0.00,VWS V13.01,2013-03-08 18:24:00,
2013-03-08 09:29:00,31.5,-5.0,29.03,NE,51,4.9,4.9,20,0.00,,---,0.00,VWS V13.01,2013-03-08 18:29:00,
2013-03-08 09:34:00,31.5,-5.0,29.03,NE,35,2.2,2.7,20,0.00,,---,0.00,VWS V13.01,2013-03-08 18:34:00,
2013-03-08 09:39:00,31.5,-5.0,29.03,North,10,3.6,3.6,20,0.00,,---,0.00,VWS V13.01,2013-03-08 18:39:00,
2013-03-08 09:44:00,32.4,-4.2,29.03,NNE,27,3.1,3.1,20,0.00,,---,0.00,VWS V13.01,2013-03-08 18:44:00,
2013-03-08 09:49:00,33.3,-3.5,29.03,NNE,23,3.6,5.8,20,0.00,,---,0.00,VWS V13.01,2013-03-08 18:49:00,
2013-03-08 09:54:00,33.6,-3.2,29.03,NNE,30,3.6,3.6,20,0.00,,---,0.00,VWS V13.01,2013-03-08 18:54:00,
2013-03-08 10:00:00,33.3,-3.5,29.03,NNE,22,3.6,3.6,20,0.00,,---,0.00,VWS V13.01,2013-03-08 19:00:00,
2013-03-08 10:05:00,33.3,-3.5,29.03,NNE,16,4.5,4.9,20,0.00,,---,0.00,VWS V13.01,2013-03-08 19:05:00,
2013-03-08 10:10:00,33.6,-3.2,29.03,NNE,20,4.5,4.5,20,0.00,,---,0.00,VWS V13.01,2013-03-08 19:10:00,
2013-03-08 10:15:00,33.6,-3.2,29.03,ENE,57,4.9,5.4,20,0.00,,---,0.00,VWS V13.01,2013-03-08 19:15:00,
2013-03-08 10:20:00,33.3,-3.5,29.03,North,9,4.0,4.0,20,0.00,,---,0.00,VWS V13.01,2013-03-08 19:20:00,
2013-03-08 10:25:00,33.1,-3.6,29.03,North,0,3.6,4.0,20,0.00,,---,0.00,VWS V13.01,2013-03-08 19:25:00,
2013-03-08 10:30:00,31.8,-4.7,29.03,North,353,4.0,4.0,20,0.00,,---,0.00,VWS V13.01,2013-03-08 19:30:00,
2013-03-08 10:35:00,31.8,-4.7,29.03,North,349,4.0,4.9,20,0.00,,---,0.00,VWS V13.01,2013-03-08 19:35:00,
2013-03-08 10:40:00,31.8,-4.7,29.03,North,353,3.1,4.9,20,0.00,,---,0.00,VWS V13.01,2013-03-08 19:40:00,
2013-03-08 10:45:00,31.6,-4.8,29.03,North,353,3.6,3.6,20,0.00,,---,0.00,VWS V13.01,2013-03-08 19:45:00,
2013-03-08 10:50:00,32.0,-4.5,29.03,North,353,0.0,2.2,20,0.00,,---,0.00,VWS V13.01,2013-03-08 19:50:00,
2013-03-08 10:55:00,32.7,-3.9,29.03,North,353,2.7,4.0,20,0.00,,---,0.00,VWS V13.01,2013-03-08 19:55:00,
2013-03-08 11:00:00,34.3,-2.6,29.03,North,10,3.1,3.1,20,0.00,,---,0.00,VWS V13.01,2013-03-08 20:00:00,
2013-03-08 11:05:00,34.9,-2.1,29.03,NNE,30,0.0,2.2,20,0.00,,---,0.00,VWS V13.01,2013-03-08 20:05:00,
2013-03-08 11:10:00,37.4,-1.1,29.03,NNE,30,2.7,5.8,19,0.00,,---,0.00,VWS V13.01,2013-03-08 20:10:00,
2013-03-08 11:15:00,37.6,-0.9,29.03,NNE,31,3.1,4.0,19,0.00,,---,0.00,VWS V13.01,2013-03-08 20:15:00,
2013-03-08 11:20:00,37.9,-0.6,29.03,ENE,70,0.0,2.7,19,0.00,,---,0.00,VWS V13.01,2013-03-08 20:20:00,
2013-03-08 11:25:00,38.1,-0.5,29.03,NNE,29,2.7,4.0,19,0.00,,---,0.00,VWS V13.01,2013-03-08 20:25:00,
2013-03-08 11:30:00,38.1,-0.5,29.03,North,5,0.0,3.6,19,0.00,,---,0.00,VWS V13.01,2013-03-08 20:30:00,
2013-03-08 11:35:00,38.3,-0.3,29.03,NNE,29,0.0,2.7,19,0.00,,---,0.00,VWS V13.01,2013-03-08 20:35:00,
2013-03-08 11:40:00,38.5,-0.2,29.03,North,357,0.0,0.0,19,0.00,,---,0.00,VWS V13.01,2013-03-08 20:40:00,
2013-03-08 11:45:00,38.3,-0.3,29.03,NNE,21,2.7,3.1,19,0.00,,---,0.00,VWS V13.01,2013-03-08 20:45:00,
2013-03-08 11:50:00,38.5,-0.2,29.03,NNE,24,2.2,2.7,19,0.00,,---,0.00,VWS V13.01,2013-03-08 20:50:00,
2013-03-08 11:55:00,41.9,4.8,29.03,NE,54,0.0,0.0,21,0.00,,---,0.00,VWS V13.01,2013-03-08 20:55:00,
2013-03-08 12:00:00,44.2,5.7,29.03,NE,39,3.6,5.8,20,0.00,,---,0.00,VWS V13.01,2013-03-08 21:00:00,
2013-03-08 12:05:00,47.7,7.4,29.03,ENE,60,3.1,3.6,19,0.00,,---,0.00,VWS V13.01,2013-03-08 21:05:00,
2013-03-08 12:10:00,45.3,6.6,29.03,NNE,30,4.0,4.0,20,0.00,,---,0.00,VWS V13.01,2013-03-08 21:10:00,
2013-03-08 12:15:00,47.3,7.1,29.03,NNE,24,3.6,3.6,19,0.00,,---,0.00,VWS V13.01,2013-03-08 21:15:00,
2013-03-08 12:20:00,47.3,7.1,29.03,ENE,76,4.0,4.0,19,0.00,,---,0.00,VWS V13.01,2013-03-08 21:20:00,
2013-03-08 12:25:00,44.8,6.2,29.03,NE,37,3.6,3.6,20,0.00,,---,0.00,VWS V13.01,2013-03-08 21:25:00,
2013-03-08 12:30:00,46.6,6.5,29.03,East,96,0.0,2.7,19,0.00,,---,0.00,VWS V13.01,2013-03-08 21:30:00,
2013-03-08 12:35:00,45.1,6.5,29.03,NE,53,3.1,5.4,20,0.00,,---,0.00,VWS V13.01,2013-03-08 21:35:00,
2013-03-08 12:40:00,42.4,5.3,29.03,NE,52,8.1,8.1,21,0.00,,---,0.00,VWS V13.01,2013-03-08 21:40:00,
2013-03-08 12:45:00,42.3,5.1,29.03,NE,48,2.7,2.7,21,0.00,,---,0.00,VWS V13.01,2013-03-08 21:45:00,
2013-03-08 12:50:00,42.1,5.0,29.03,NNE,31,5.4,5.4,21,0.00,,---,0.00,VWS V13.01,2013-03-08 21:50:00,
2013-03-08 12:55:00,43.0,4.7,29.03,ENE,66,2.7,3.6,20,0.00,,---,0.00,VWS V13.01,2013-03-08 21:55:00,
2013-03-08 13:00:00,44.1,5.6,29.03,North,357,3.6,4.0,20,0.00,,---,0.00,VWS V13.01,2013-03-08 22:00:00,
2013-03-08 13:05:00,44.1,5.6,29.03,North,8,3.1,3.6,20,0.00,,---,0.00,VWS V13.01,2013-03-08 22:05:00,
2013-03-08 13:10:00,44.4,5.9,29.03,North,357,3.1,4.0,20,0.00,,---,0.00,VWS V13.01,2013-03-08 22:10:00,
2013-03-08 13:15:00,44.8,6.2,29.03,NNE,17,4.0,4.0,20,0.00,,---,0.00,VWS V13.01,2013-03-08 22:15:00,
2013-03-08 13:20:00,45.0,6.3,29.03,North,0,3.1,4.0,20,0.00,,---,0.00,VWS V13.01,2013-03-08 22:20:00,
2013-03-08 13:25:00,45.9,7.1,29.03,North,10,2.7,3.6,20,0.00,,---,0.00,VWS V13.01,2013-03-08 22:25:00,
2013-03-08 13:31:00,46.0,7.2,29.03,NNE,32,5.8,5.8,20,0.00,,---,0.00,VWS V13.01,2013-03-08 22:31:00,
2013-03-08 13:35:00,46.2,7.4,29.03,NNW,332,3.1,3.1,20,0.00,,---,0.00,VWS V13.01,2013-03-08 22:35:00,
2013-03-08 13:40:00,46.2,7.4,29.03,North,0,0.0,2.7,20,0.04,,---,0.04,VWS V13.01,2013-03-08 22:40:00,
2013-03-08 13:45:00,48.9,8.5,29.03,ENE,60,0.0,2.2,19,0.04,,---,0.04,VWS V13.01,2013-03-08 22:45:00,
2013-03-08 13:51:00,51.4,10.6,29.03,East,95,2.2,5.4,19,0.04,,---,0.04,VWS V13.01,2013-03-08 22:51:00,
2013-03-08 13:56:00,53.4,11.0,29.03,ENE,72,2.7,3.6,18,0.04,,---,0.04,VWS V13.01,2013-03-08 22:56:00,
2013-03-08 14:01:00,52.0,9.8,29.03,East,96,2.2,3.6,18,0.04,,---,0.04,VWS V13.01,2013-03-08 23:01:00,
2013-03-08 14:06:00,49.5,8.9,29.03,NNE,28,4.0,4.0,19,0.04,,---,0.04,VWS V13.01,2013-03-08 23:06:00,
2013-03-08 14:11:00,47.3,7.1,29.03,NE,47,3.6,4.0,19,0.04,,---,0.04,VWS V13.01,2013-03-08 23:11:00,
2013-03-08 14:16:00,47.5,7.3,29.03,NNE,33,0.0,0.0,19,0.04,,---,0.04,VWS V13.01,2013-03-08 23:16:00,
2013-03-08 14:21:00,50.5,9.8,29.03,NE,34,0.0,0.0,19,0.04,,---,0.04,VWS V13.01,2013-03-08 23:21:00,
2013-03-08 14:26:00,49.6,9.1,29.03,ESE,105,3.1,3.1,19,0.04,,---,0.04,VWS V13.01,2013-03-08 23:26:00,
2013-03-08 14:31:00,49.3,8.8,29.03,ENE,60,0.0,0.0,19,0.04,,---,0.04,VWS V13.01,2013-03-08 23:31:00,
2013-03-08 14:36:00,48.2,7.9,29.03,ESE,118,2.7,3.1,19,0.04,,---,0.04,VWS V13.01,2013-03-08 23:36:00,
2013-03-08 14:41:00,46.9,6.8,29.03,SE,129,6.3,7.2,19,0.00,,---,0.04,VWS V13.01,2013-03-08 23:41:00,
2013-03-08 14:46:00,46.6,6.5,29.03,ESE,115,3.6,3.6,19,0.00,,---,0.04,VWS V13.01,2013-03-08 23:46:00,
2013-03-08 14:51:00,46.4,6.4,29.03,SE,145,0.0,2.2,19,0.00,,---,0.04,VWS V13.01,2013-03-08 23:51:00,
2013-03-08 14:56:00,45.9,7.1,29.03,SE,124,3.6,3.6,20,0.00,,---,0.04,VWS V13.01,2013-03-08 23:56:00,
2013-03-08 15:01:00,45.3,6.6,29.03,East,95,2.2,3.1,20,0.00,,---,0.04,VWS V13.01,2013-03-09 00:01:00,
2013-03-08 15:06:00,45.1,6.5,29.03,ESE,118,4.0,4.0,20,0.00,,---,0.04,VWS V13.01,2013-03-09 00:06:00,
2013-03-08 15:11:00,45.3,6.6,29.03,SE,126,0.0,2.2,20,0.00,,---,0.04,VWS V13.01,2013-03-09 00:11:00,
2013-03-08 15:16:00,45.3,6.6,29.03,SE,126,0.0,0.0,20,0.00,,---,0.04,VWS V13.01,2013-03-09 00:16:00,
2013-03-08 15:21:00,45.7,6.9,29.03,SE,126,0.0,0.0,20,0.00,,---,0.04,VWS V13.01,2013-03-09 00:21:00,
2013-03-08 15:26:00,46.2,7.4,29.03,SE,125,0.0,0.0,20,0.00,,---,0.04,VWS V13.01,2013-03-09 00:26:00,
2013-03-08 15:31:00,46.6,6.5,29.03,SE,126,0.0,0.0,19,0.00,,---,0.04,VWS V13.01,2013-03-09 00:31:00,
2013-03-08 15:36:00,46.9,6.8,29.03,ESE,117,3.1,3.6,19,0.00,,---,0.04,VWS V13.01,2013-03-09 00:36:00,
2013-03-08 15:41:00,48.0,7.7,29.03,ESE,122,3.6,3.6,19,0.00,,---,0.04,VWS V13.01,2013-03-09 00:41:00,
2013-03-08 15:46:00,48.9,8.5,29.03,ESE,116,4.0,4.0,19,0.00,,---,0.04,VWS V13.01,2013-03-09 00:46:00,
2013-03-08 15:51:00,48.7,8.3,29.03,East,90,3.6,4.0,19,0.00,,---,0.04,VWS V13.01,2013-03-09 00:51:00,
2013-03-08 15:56:00,46.6,6.5,29.03,East,87,5.8,5.8,19,0.00,,---,0.04,VWS V13.01,2013-03-09 00:56:00,
2013-03-08 16:01:00,45.3,6.6,29.03,East,98,7.6,7.6,20,0.00,,---,0.04,VWS V13.01,2013-03-09 01:01:00,
2013-03-08 16:06:00,45.3,6.6,29.03,ESE,109,4.0,4.9,20,0.00,,---,0.04,VWS V13.01,2013-03-09 01:06:00,
2013-03-08 16:11:00,45.1,6.5,29.03,ESE,108,2.7,4.0,20,0.00,,---,0.04,VWS V13.01,2013-03-09 01:11:00,
2013-03-08 16:16:00,45.1,6.5,29.03,ESE,117,2.7,2.7,20,0.00,,---,0.04,VWS V13.01,2013-03-09 01:16:00,
2013-03-08 16:21:00,45.9,7.1,29.03,East,96,2.7,2.7,20,0.00,,---,0.04,VWS V13.01,2013-03-09 01:21:00,
2013-03-08 16:26:00,46.8,6.7,29.03,East,95,0.0,0.0,19,0.00,,---,0.04,VWS V13.01,2013-03-09 01:26:00,
2013-03-08 16:31:00,47.1,7.0,29.03,ESE,120,2.2,2.2,19,0.00,,---,0.04,VWS V13.01,2013-03-09 01:31:00,
2013-03-08 16:36:00,46.4,6.4,29.03,East,89,3.6,3.6,19,0.00,,---,0.04,VWS V13.01,2013-03-09 01:36:00,
2013-03-08 16:41:00,45.1,6.5,29.03,East,97,3.6,4.0,20,0.00,,---,0.04,VWS V13.01,2013-03-09 01:41:00,
2013-03-08 16:46:00,44.8,6.2,29.03,East,97,3.6,3.6,20,0.00,,---,0.04,VWS V13.01,2013-03-09 01:46:00,
2013-03-08 16:51:00,44.6,6.0,29.03,ESE,108,4.0,4.0,20,0.00,,---,0.04,VWS V13.01,2013-03-09 01:51:00,
2013-03-08 16:56:00,45.3,6.6,29.03,East,92,3.6,4.0,20,0.00,,---,0.04,VWS V13.01,2013-03-09 01:56:00,
2013-03-08 17:01:00,45.7,6.9,29.03,ESE,112,3.6,3.6,20,0.00,,---,0.04,VWS V13.01,2013-03-09 02:01:00,
2013-03-08 17:06:00,45.1,6.5,29.03,East,92,2.7,2.7,20,0.00,,---,0.04,VWS V13.01,2013-03-09 02:06:00,
2013-03-08 17:11:00,44.6,6.0,29.03,East,99,4.0,4.0,20,0.00,,---,0.04,VWS V13.01,2013-03-09 02:11:00,
2013-03-08 17:16:00,44.6,6.0,29.03,East,100,2.2,3.1,20,0.00,,---,0.04,VWS V13.01,2013-03-09 02:16:00,
2013-03-08 17:21:00,44.8,6.2,29.03,East,94,2.7,2.7,20,0.00,,---,0.04,VWS V13.01,2013-03-09 02:21:00,
2013-03-08 17:26:00,44.6,6.0,29.03,ESE,108,3.6,3.6,20,0.00,,---,0.04,VWS V13.01,2013-03-09 02:26:00,
2013-03-08 17:31:00,44.1,5.6,29.03,East,97,2.7,2.7,20,0.00,,---,0.04,VWS V13.01,2013-03-09 02:31:00,
2013-03-08 17:36:00,43.9,5.4,29.03,ESE,105,3.1,3.6,20,0.00,,---,0.04,VWS V13.01,2013-03-09 02:36:00,
2013-03-08 17:41:00,43.9,5.4,29.03,ENE,75,2.7,2.7,20,0.00,,---,0.04,VWS V13.01,2013-03-09 02:41:00,
2013-03-08 17:46:00,43.5,5.1,29.03,East,91,4.0,4.0,20,0.00,,---,0.04,VWS V13.01,2013-03-09 02:46:00,
2013-03-08 17:51:00,42.1,5.0,29.03,East,82,0.0,2.2,21,0.00,,---,0.04,VWS V13.01,2013-03-09 02:51:00,
2013-03-08 17:56:00,40.6,3.8,29.03,East,82,0.0,0.0,21,0.00,,---,0.04,VWS V13.01,2013-03-09 02:56:00,
2013-03-08 18:01:00,39.9,3.2,29.03,East,82,2.2,2.2,21,0.00,,---,0.04,VWS V13.01,2013-03-09 03:01:00,
2013-03-08 18:06:00,38.3,1.8,29.03,East,81,0.0,0.0,21,0.00,,---,0.04,VWS V13.01,2013-03-09 03:06:00,
2013-03-08 18:11:00,35.8,0.7,29.03,East,82,0.0,0.0,22,0.00,,---,0.04,VWS V13.01,2013-03-09 03:11:00,
2013-03-08 18:16:00,34.3,2.2,29.03,East,82,0.0,0.0,25,0.00,,---,0.04,VWS V13.01,2013-03-09 03:16:00,
2013-03-08 18:21:00,33.8,5.7,29.03,East,82,0.0,0.0,30,0.00,,---,0.04,VWS V13.01,2013-03-09 03:21:00,
2013-03-08 18:26:00,33.6,7.6,29.03,East,82,0.0,0.0,33,0.00,,---,0.04,VWS V13.01,2013-03-09 03:26:00,
2013-03-08 18:31:00,33.1,7.1,29.03,East,82,0.0,0.0,33,0.00,,---,0.04,VWS V13.01,2013-03-09 03:31:00,
2013-03-08 18:36:00,33.6,6.2,29.03,East,81,0.0,0.0,31,0.00,,---,0.04,VWS V13.01,2013-03-09 03:36:00,
2013-03-08 18:41:00,32.7,5.4,29.03,East,81,0.0,0.0,31,0.00,,---,0.04,VWS V13.01,2013-03-09 03:41:00,
2013-03-08 18:46:00,31.6,4.5,29.03,East,82,0.0,0.0,31,0.00,,---,0.04,VWS V13.01,2013-03-09 03:46:00,
2013-03-08 18:51:00,30.7,3.7,29.03,East,81,0.0,0.0,31,0.00,,---,0.04,VWS V13.01,2013-03-09 03:51:00,
2013-03-08 18:56:00,29.7,2.7,29.06,East,81,0.0,0.0,31,0.00,,---,0.04,VWS V13.01,2013-03-09 03:56:00,
2013-03-08 19:01:00,29.8,6.2,29.06,East,82,0.0,0.0,36,0.00,,---,0.04,VWS V13.01,2013-03-09 04:01:00,
2013-03-08 19:06:00,30.2,9.9,29.06,East,81,0.0,0.0,42,0.00,,---,0.04,VWS V13.01,2013-03-09 04:06:00,
2013-03-08 19:11:00,30.2,11.4,29.06,East,82,0.0,0.0,45,0.00,,---,0.04,VWS V13.01,2013-03-09 04:11:00,
2013-03-08 19:16:00,29.8,11.6,29.06,East,82,0.0,2.2,46,0.00,,---,0.04,VWS V13.01,2013-03-09 04:16:00,
2013-03-08 19:21:00,29.7,9.9,29.06,East,82,0.0,0.0,43,0.00,,---,0.04,VWS V13.01,2013-03-09 04:21:00,
2013-03-08 19:26:00,29.8,6.8,29.06,East,82,2.2,2.7,37,0.00,,---,0.04,VWS V13.01,2013-03-09 04:26:00,
2013-03-08 19:31:00,29.3,8.5,29.06,East,82,0.0,2.7,41,0.00,,---,0.04,VWS V13.01,2013-03-09 04:31:00,
2013-03-08 19:36:00,28.9,9.8,29.06,East,82,0.0,0.0,44,0.00,,---,0.04,VWS V13.01,2013-03-09 04:36:00,
2013-03-08 19:41:00,29.1,10.9,29.06,East,81,0.0,0.0,46,0.00,,---,0.04,VWS V13.01,2013-03-09 04:41:00,
2013-03-08 19:46:00,29.3,10.1,29.06,East,82,3.1,3.1,44,0.00,,---,0.04,VWS V13.01,2013-03-09 04:46:00,
2013-03-08 19:51:00,29.3,10.6,29.06,East,81,0.0,0.0,45,0.00,,---,0.04,VWS V13.01,2013-03-09 04:51:00,
2013-03-08 19:56:00,29.8,9.0,29.06,East,82,0.0,0.0,41,0.00,,---,0.04,VWS V13.01,2013-03-09 04:56:00,
2013-03-08 20:00:00,30.9,3.1,29.06,East,82,0.0,2.2,30,0.00,,---,0.04,VWS V13.01,2013-03-09 05:00:00,
2013-03-08 20:01:00,32.2,0.3,29.06,North,2,2.7,3.1,25,0.00,,---,0.04,VWS V13.01,2013-03-09 05:01:00,
2013-03-08 20:06:00,32.0,-1.6,29.06,North,357,2.7,2.7,23,0.00,,---,0.04,VWS V13.01,2013-03-09 05:06:00,
2013-03-08 20:11:00,31.1,-0.6,29.09,North,0,2.2,2.2,25,0.00,,---,0.04,VWS V13.01,2013-03-09 05:11:00,
2013-03-08 20:16:00,32.7,-1.0,29.09,North,5,2.2,2.2,23,0.00,,---,0.04,VWS V13.01,2013-03-09 05:16:00,
2013-03-08 20:21:00,32.9,-0.8,29.09,NNE,19,2.2,2.2,23,0.00,,---,0.04,VWS V13.01,2013-03-09 05:21:00,
2013-03-08 20:26:00,33.3,-0.5,29.06,NNE,21,0.0,0.0,23,0.00,,---,0.04,VWS V13.01,2013-03-09 05:26:00,
2013-03-08 20:31:00,32.9,-0.8,29.06,NNE,14,0.0,0.0,23,0.00,,---,0.04,VWS V13.01,2013-03-09 05:31:00,
2013-03-08 20:36:00,30.6,2.8,29.06,North,353,0.0,0.0,30,0.00,,---,0.04,VWS V13.01,2013-03-09 05:36:00,
2013-03-08 20:41:00,30.0,5.7,29.09,North,353,0.0,0.0,35,0.00,,---,0.04,VWS V13.01,2013-03-09 05:41:00,
2013-03-08 20:46:00,30.7,4.4,29.09,North,353,2.2,2.2,32,0.00,,---,0.04,VWS V13.01,2013-03-09 05:46:00,
2013-03-08 20:51:00,31.8,4.6,29.09,North,353,0.0,2.7,31,0.00,,---,0.04,VWS V13.01,2013-03-09 05:51:00,
2013-03-08 20:56:00,32.2,0.3,29.09,North,350,2.2,3.6,25,0.00,,---,0.04,VWS V13.01,2013-03-09 05:56:00,
2013-03-08 21:01:00,31.6,-1.9,29.09,NNW,332,0.0,0.0,23,0.00,,---,0.04,VWS V13.01,2013-03-09 06:01:00,
2013-03-08 21:06:00,30.9,-0.8,29.09,NNW,332,3.6,3.6,25,0.00,,---,0.04,VWS V13.01,2013-03-09 06:06:00,
2013-03-08 21:11:00,30.7,3.0,29.09,NNW,333,3.1,3.1,30,0.00,,---,0.04,VWS V13.01,2013-03-09 06:11:00,
2013-03-08 21:16:00,31.3,-0.4,29.09,NNW,341,2.2,3.1,25,0.00,,---,0.04,VWS V13.01,2013-03-09 06:16:00,
2013-03-08 21:21:00,31.8,-1.8,29.09,NNW,337,2.7,2.7,23,0.00,,---,0.04,VWS V13.01,2013-03-09 06:21:00,
2013-03-08 21:26:00,30.9,-2.5,29.09,NNW,337,0.0,0.0,23,0.00,,---,0.04,VWS V13.01,2013-03-09 06:26:00,
2013-03-08 21:31:00,29.5,-2.0,29.09,North,350,0.0,0.0,25,0.00,,---,0.04,VWS V13.01,2013-03-09 06:31:00,
2013-03-08 21:36:00,29.7,2.0,29.09,NNE,22,2.7,2.7,30,0.00,,---,0.04,VWS V13.01,2013-03-09 06:36:00,
2013-03-08 21:41:00,30.9,-0.8,29.09,North,0,2.7,2.7,25,0.00,,---,0.04,VWS V13.01,2013-03-09 06:41:00,
2013-03-08 21:46:00,30.2,1.0,29.09,NNW,342,3.1,3.1,28,0.00,,---,0.04,VWS V13.01,2013-03-09 06:46:00,
2013-03-08 21:51:00,30.9,-0.8,29.09,NNE,15,0.0,0.0,25,0.00,,---,0.04,VWS V13.01,2013-03-09 06:51:00,
2013-03-08 21:56:00,30.6,-1.1,29.09,North,357,0.0,0.0,25,0.00,,---,0.04,VWS V13.01,2013-03-09 06:56:00,
2013-03-08 22:01:00,28.8,2.0,29.09,NW,325,0.0,0.0,31,0.00,,---,0.04,VWS V13.01,2013-03-09 07:01:00,
2013-03-08 22:06:00,27.5,4.1,29.09,NW,310,3.1,3.1,36,0.00,,---,0.04,VWS V13.01,2013-03-09 07:06:00,
2013-03-08 22:11:00,27.5,8.5,29.09,NW,310,3.1,3.1,44,0.00,,---,0.04,VWS V13.01,2013-03-09 07:11:00,
2013-03-08 22:16:00,27.0,8.9,29.09,NNW,329,0.0,0.0,46,0.00,,---,0.04,VWS V13.01,2013-03-09 07:16:00,
2013-03-08 22:21:00,26.6,8.6,29.09,NNW,337,2.2,2.2,46,0.00,,---,0.04,VWS V13.01,2013-03-09 07:21:00,
2013-03-08 22:26:00,25.9,7.0,29.12,NNW,337,0.0,0.0,44,0.00,,---,0.04,VWS V13.01,2013-03-09 07:26:00,
2013-03-08 22:31:00,25.0,6.2,29.12,NNW,337,0.0,0.0,44,0.00,,---,0.04,VWS V13.01,2013-03-09 07:31:00,
2013-03-08 22:36:00,24.3,6.0,29.12,NNW,337,0.0,0.0,45,0.00,,---,0.04,VWS V13.01,2013-03-09 07:36:00,
2013-03-08 22:41:00,25.0,8.1,29.12,NNW,337,0.0,0.0,48,0.00,,---,0.04,VWS V13.01,2013-03-09 07:41:00,
2013-03-08 22:46:00,25.2,9.6,29.12,NNW,329,0.0,0.0,51,0.00,,---,0.04,VWS V13.01,2013-03-09 07:46:00,
2013-03-08 22:51:00,24.8,9.2,29.12,NNW,329,0.0,0.0,51,0.00,,---,0.04,VWS V13.01,2013-03-09 07:51:00,
2013-03-08 22:56:00,23.9,7.5,29.12,NW,326,0.0,0.0,49,0.00,,---,0.04,VWS V13.01,2013-03-09 07:56:00,
2013-03-08 23:01:00,24.3,9.2,29.12,NW,326,0.0,0.0,52,0.00,,---,0.04,VWS V13.01,2013-03-09 08:01:00,
2013-03-08 23:06:00,23.4,8.8,29.12,NW,326,0.0,0.0,53,0.00,,---,0.04,VWS V13.01,2013-03-09 08:06:00,
2013-03-08 23:11:00,23.5,9.4,29.12,NW,326,0.0,0.0,54,0.00,,---,0.04,VWS V13.01,2013-03-09 08:11:00,
2013-03-08 23:16:00,23.4,9.6,29.12,NW,326,0.0,0.0,55,0.00,,---,0.04,VWS V13.01,2013-03-09 08:16:00,
2013-03-08 23:21:00,24.3,10.4,29.12,NW,326,0.0,0.0,55,0.00,,---,0.04,VWS V13.01,2013-03-09 08:21:00,
2013-03-08 23:26:00,23.5,9.8,29.12,NNW,337,0.0,0.0,55,0.00,,---,0.04,VWS V13.01,2013-03-09 08:26:00,
2013-03-08 23:31:00,23.4,9.6,29.12,NW,316,0.0,0.0,55,0.00,,---,0.04,VWS V13.01,2013-03-09 08:31:00,
2013-03-08 23:36:00,23.5,10.2,29.12,NNW,328,2.7,2.7,56,0.00,,---,0.04,VWS V13.01,2013-03-09 08:36:00,
2013-03-08 23:41:00,23.7,10.7,29.12,NW,320,0.0,0.0,57,0.00,,---,0.04,VWS V13.01,2013-03-09 08:41:00,
2013-03-08 23:46:00,24.1,12.2,29.12,NW,321,0.0,0.0,60,0.00,,---,0.04,VWS V13.01,2013-03-09 08:46:00,
2013-03-08 23:51:00,24.4,12.2,29.12,NW,319,0.0,0.0,59,0.00,,---,0.04,VWS V13.01,2013-03-09 08:51:00,
2013-03-08 23:56:00,24.4,11.0,29.15,NW,319,0.0,0.0,56,0.00,,---,0.04,VWS V13.01,2013-03-09 08:56:00,